Flag for Romania Weather past 2 weeks in Cluj-Napoca, Romania

Now
30 °F

Clear.


Feels Like: 27 °F
Forecast: 22 / 44 °F
Wind: 3 mph from West

Location: Cluj Airport-Napoca

Current Time: Mar 7, 2015 at 2:53:48 AM

Latest Report: Mar 7, 2015 at 2:00 AM


Visibility: 10 mi

Pressure: 30.48 "Hg

Humidity: 100%

Dew point: 30 °F

Location of Cluj-NapocaLocation

Historic Weather in Cluj-Napoca — Graph

°F

Cluj-Napoca temperature yesterday

Maximum temperature yesterday: 41 °F (at 4:30 PM)
Minimum temperature yesterday: 34 °F (at 3:00 AM)
Average temperature yesterday: 36 °F

Past Weeks' High & Low Weather Summary

 TemperatureHumidityPressure
High57 °F (Feb 24, 2:00 PM)100% (Feb 21, 3:00 AM)30.48 "Hg (Feb 21, 3:00 AM)
Low27 °F (Mar 4, 6:00 AM)34% (Mar 4, 1:30 PM)29.65 "Hg (Feb 24, 4:00 PM)
Average42 °F85%29.99 "Hg
* Reported Feb 20 1:00 AM — Mar 7 1:00 AM, Cluj-Napoca, Weather by CustomWeather, © 2015

Note: Actual official high and low records may vary slightly from our data, if they occured in-between our weather recording intervals... More about our weather records

Advertising

Cluj-Napoca weather history for previous 24 hours

 ConditionsComfort  
Time TempWeatherWind HumidityBarometerVisibility
1:00 AM
Sat, Mar 7
32 °FPassing clouds.2 mph100%30.48 "HgN/A
11:30 PM
Fri, Mar 6
36 °FPassing clouds.1 mph81%30.48 "HgN/A
11:00 PM34 °FPassing clouds.1 mph100%30.45 "HgN/A
10:30 PM36 °FPassing clouds.2 mph93%30.45 "HgN/A
10:00 PM36 °FPartly cloudy.5 mph93%30.45 "HgN/A
9:30 PM36 °FOvercast.6 mph100%30.45 "HgN/A
9:00 PM36 °FPassing clouds.5 mph93%30.42 "HgN/A
8:30 PM36 °FPassing clouds.6 mph100%30.42 "HgN/A
8:00 PM36 °FPassing clouds.7 mph100%30.42 "HgN/A
7:30 PM37 °FPassing clouds.7 mph87%30.42 "HgN/A
7:00 PM37 °FPassing clouds.7 mph93%30.39 "HgN/A
6:30 PM39 °FPartly cloudy.5 mph81%30.39 "HgN/A
6:00 PM41 °FPartly sunny.5 mph66%30.39 "HgN/A
5:30 PM41 °FPartly sunny.6 mph66%30.36 "HgN/A
5:00 PM41 °FMostly cloudy.6 mph70%30.36 "HgN/A
4:30 PM41 °FBroken clouds.6 mph70%30.36 "HgN/A
3:30 PM39 °FBroken clouds.8 mph81%30.36 "HgN/A
3:00 PM39 °FPartly sunny.7 mph81%30.36 "HgN/A
2:30 PM37 °FLight rain. Mostly cloudy.7 mph87%30.39 "HgN/A
2:00 PM37 °FLight rain. Mostly cloudy.7 mph87%30.39 "HgN/A
1:30 PM37 °FLight rain. Mostly cloudy.7 mph93%30.39 "HgN/A
1:00 PM36 °FLight rain. Mostly cloudy.7 mph100%30.39 "HgN/A
12:00 PM36 °FLight rain. Fog.3 mph100%30.36 "Hg3 mi
11:30 AM34 °FLight snow. Fog.1 mph100%30.36 "Hg2 mi
11:00 AM36 °FLight snow. Fog.2 mph93%30.36 "Hg2 mi
10:30 AM34 °FLight snow. Fog.3 mph100%30.33 "Hg2 mi
10:00 AM34 °FLight snow. Fog.2 mph100%30.33 "Hg1 mi
9:30 AM34 °FLight snow. Fog.3 mph100%30.33 "Hg1 mi
9:00 AM34 °FLight snow. Fog.5 mph100%30.33 "Hg1 mi
8:30 AM34 °FLight snow. Fog.3 mph100%30.33 "Hg1 mi
8:00 AM34 °FLight snow. Fog.5 mph100%30.30 "Hg2 mi
7:30 AM34 °FLight snow. Fog.7 mph100%30.30 "Hg2 mi
7:00 AM34 °FLight snow. Fog.8 mph100%30.30 "Hg2 mi
6:30 AM34 °FLight snow. Fog.6 mph100%30.30 "Hg2 mi
6:00 AM34 °FLight snow. Fog.8 mph100%30.30 "Hg2 mi
5:30 AM34 °FLight snow. Fog.8 mph100%30.30 "Hg2 mi
5:00 AM34 °FLight snow. Fog.8 mph100%30.27 "Hg3 mi
4:00 AM34 °FLight snow. Mostly cloudy.5 mph100%30.27 "Hg4 mi
3:00 AM34 °FLight snow. Mostly cloudy.6 mph100%30.27 "HgN/A
2:00 AM36 °FLight rain. Mostly cloudy.7 mph100%30.27 "HgN/A
Weather by CustomWeather, © 2015

See weather overviewHow to use our weather pages